QPF
0.00 0.00 0.02 0.02 0.02 0.02 0.02 0.01 0.01 0.01 0.01 0.02 0.03 0.03 0.04 0.03 0.04 0.03 0.03 0.02 0.02 0.02 0.02 0.03 0.03 0.03 0.03 0.03 0.03 0.02 0.02 0.02 0.02 0.01 0.01 0.01 0.02 0.01 0.01 0.01 0.01 0.02 0.03
0.00 0.00 0.01 0.02 0.02 0.02 0.02 0.02 0.01 0.01 0.01 0.01 0.02 0.03 0.04 0.03 0.04 0.04 0.03 0.02 0.02 0.02 0.03 0.04 0.03 0.03 0.03 0.03 0.02 0.01 0.02 0.01 0.01 0.00 0.00 0.01 0.01 0.01 0.01 0.01 0.01 0.02 0.03
0.00 0.01 0.01 0.02 0.02 0.02 0.02 0.02 0.02 0.01 0.01 0.01 0.01 0.02 0.03 0.03 0.04 0.04 0.03 0.03 0.03 0.02 0.03 0.03 0.03 0.02 0.02 0.03 0.02 0.01 0.01 0.01 0.00 0.00 0.00 0.00 0.01 0.01 0.01 0.01 0.02 0.02 0.03
0.01 0.01 0.01 0.02 0.03 0.02 0.02 0.02 0.02 0.02 0.02 0.03 0.02 0.01 0.02 0.02 0.03 0.03 0.03 0.03 0.04 0.03 0.03 0.03 0.02 0.01 0.01 0.02 0.02 0.01 0.01 0.01 0.00 0.00 0.00 0.00 0.01 0.01 0.02 0.02 0.03 0.03 0.03
0.01 0.01 0.01 0.03 0.04 0.03 0.02 0.02 0.03 0.03 0.03 0.04 0.03 0.02 0.02 0.02 0.02 0.02 0.03 0.03 0.04 0.04 0.03 0.03 0.02 0.01 0.01 0.01 0.01 0.01 0.01 0.01 0.00 0.00 0.00 0.01 0.01 0.03 0.03 0.02 0.03 0.03 0.02
0.01 0.01 0.01 0.02 0.04 0.05 0.03 0.02 0.03 0.03 0.04 0.04 0.03 0.02 0.02 0.02 0.02 0.02 0.03 0.04 0.03 0.03 0.03 0.03 0.03 0.02 0.01 0.01 0.01 0.01 0.01 0.01 0.00 0.00 0.00 0.01 0.01 0.02 0.03 0.03 0.02 0.02 0.01
0.02 0.02 0.02 0.04 0.05 0.05 0.05 0.04 0.04 0.04 0.05 0.05 0.03 0.02 0.02 0.02 0.02 0.02 0.03 0.04 0.03 0.03 0.03 0.04 0.03 0.02 0.01 0.01 0.01 0.01 0.01 0.01 0.00 0.00 0.00 0.01 0.02 0.02 0.03 0.02 0.01 0.01 0.01
0.02 0.03 0.04 0.05 0.08 0.08 0.07 0.05 0.05 0.05 0.06 0.05 0.04 0.02 0.02 0.02 0.02 0.03 0.03 0.03 0.03 0.03 0.03 0.03 0.04 0.02 0.01 0.01 0.01 0.01 0.01 0.00 0.00 0.00 0.00 0.01 0.01 0.02 0.02 0.01 0.01 0.01 0.01
0.02 0.03 0.05 0.06 0.07 0.09 0.09 0.07 0.06 0.06 0.07 0.07 0.06 0.04 0.02 0.02 0.02 0.03 0.03 0.03 0.03 0.03 0.03 0.03 0.03 0.03 0.01 0.01 0.01 0.00 0.00 0.00 0.00 0.00 0.00 0.01 0.01 0.02 0.01 0.01 0.01 0.01 0.01
0.02 0.03 0.04 0.05 0.06 0.07 0.07 0.09 0.08 0.07 0.08 0.09 0.08 0.06 0.03 0.02 0.02 0.02 0.02 0.02 0.03 0.03 0.03 0.03 0.03 0.03 0.03 0.02 0.01 0.01 0.00 0.00 0.00 0.00 0.00 0.01 0.02 0.02 0.02 0.01 0.02 0.02 0.02
0.02 0.02 0.03 0.04 0.05 0.06 0.07 0.07 0.09 0.09 0.09 0.11 0.11 0.07 0.04 0.03 0.02 0.01 0.02 0.02 0.02 0.02 0.03 0.03 0.03 0.03 0.04 0.02 0.02 0.01 0.01 0.01 0.01 0.01 0.01 0.01 0.03 0.03 0.02 0.02 0.02 0.02 0.02
0.02 0.02 0.03 0.04 0.04 0.06 0.07 0.07 0.09 0.11 0.11 0.10 0.09 0.07 0.04 0.03 0.02 0.02 0.02 0.02 0.02 0.02 0.03 0.04 0.03 0.03 0.03 0.02 0.02 0.01 0.01 0.01 0.01 0.01 0.01 0.02 0.03 0.03 0.03 0.02 0.01 0.01 0.01
0.02 0.02 0.02 0.03 0.03 0.03 0.07 0.09 0.09 0.10 0.10 0.09 0.09 0.06 0.04 0.03 0.02 0.02 0.02 0.02 0.03 0.02 0.02 0.03 0.03 0.02 0.02 0.02 0.01 0.01 0.01 0.01 0.01 0.01 0.02 0.02 0.02 0.02 0.02 0.02 0.02 0.01 0.01
0.03 0.02 0.03 0.03 0.03 0.02 0.03 0.06 0.10 0.11 0.09 0.07 0.08 0.08 0.05 0.03 0.03 0.02 0.02 0.03 0.03 0.02 0.02 0.03 0.03 0.02 0.03 0.03 0.02 0.01 0.01 0.01 0.01 0.01 0.01 0.02 0.01 0.02 0.02 0.02 0.02 0.02 0.02
0.03 0.03 0.03 0.03 0.03 0.02 0.03 0.05 0.06 0.08 0.08 0.06 0.06 0.07 0.08 0.05 0.04 0.03 0.02 0.03 0.03 0.03 0.03 0.04 0.04 0.03 0.03 0.03 0.03 0.02 0.02 0.02 0.02 0.02 0.02 0.02 0.02 0.02 0.03 0.03 0.03 0.03 0.03
0.03 0.03 0.03 0.04 0.04 0.03 0.03 0.05 0.05 0.05 0.06 0.06 0.06 0.06 0.07 0.07 0.05 0.03 0.03 0.03 0.03 0.03 0.04 0.05 0.04 0.04 0.03 0.02 0.02 0.02 0.02 0.02 0.02 0.02 0.02 0.02 0.03 0.02 0.02 0.04 0.04 0.05 0.04
0.04 0.04 0.05 0.04 0.05 0.03 0.03 0.05 0.06 0.06 0.05 0.04 0.04 0.05 0.06 0.06 0.05 0.03 0.02 0.02 0.02 0.03 0.04 0.05 0.06 0.05 0.04 0.03 0.02 0.01 0.02 0.01 0.02 0.02 0.02 0.02 0.02 0.02 0.02 0.04 0.06 0.07 0.05
0.08 0.07 0.05 0.04 0.04 0.04 0.03 0.04 0.05 0.07 0.05 0.03 0.02 0.03 0.06 0.06 0.05 0.04 0.03 0.02 0.02 0.02 0.04 0.06 0.07 0.06 0.06 0.05 0.03 0.02 0.01 0.01 0.01 0.02 0.02 0.02 0.02 0.02 0.02 0.02 0.04 0.06 0.07
0.09 0.08 0.06 0.05 0.04 0.04 0.03 0.03 0.04 0.05 0.05 0.03 0.02 0.02 0.04 0.06 0.07 0.07 0.04 0.03 0.02 0.02 0.03 0.06 0.08 0.07 0.07 0.10 0.10 0.07 0.04 0.02 0.02 0.02 0.02 0.03 0.03 0.02 0.02 0.03 0.03 0.04 0.06
0.09 0.09 0.07 0.06 0.05 0.04 0.03 0.02 0.03 0.03 0.04 0.03 0.02 0.01 0.01 0.04 0.06 0.07 0.06 0.05 0.03 0.02 0.01 0.03 0.08 0.10 0.09 0.08 0.08 0.08 0.07 0.06 0.04 0.03 0.03 0.03 0.03 0.03 0.04 0.03 0.03 0.03 0.04
0.07 0.09 0.08 0.06 0.05 0.05 0.03 0.02 0.02 0.02 0.02 0.01 0.01 0.01 0.01 0.02 0.03 0.05 0.06 0.06 0.05 0.03 0.01 0.02 0.04 0.07 0.09 0.07 0.06 0.06 0.05 0.05 0.05 0.04 0.04 0.04 0.03 0.03 0.03 0.03 0.03 0.03 0.03
0.06 0.06 0.07 0.08 0.07 0.05 0.03 0.03 0.02 0.02 0.01 0.01 0.01 0.00 0.00 0.01 0.02 0.03 0.04 0.05 0.04 0.03 0.02 0.02 0.03 0.04 0.05 0.05 0.04 0.04 0.06 0.06 0.06 0.06 0.05 0.06 0.06 0.05 0.05 0.04 0.03 0.03 0.03
0.05 0.05 0.05 0.05 0.06 0.06 0.05 0.04 0.03 0.02 0.02 0.02 0.01 0.01 0.01 0.01 0.01 0.02 0.03 0.04 0.04 0.03 0.02 0.02 0.03 0.03 0.04 0.04 0.04 0.05 0.05 0.06 0.07 0.07 0.07 0.07 0.08 0.07 0.06 0.06 0.06 0.04 0.04
0.04 0.04 0.03 0.03 0.02 0.03 0.03 0.03 0.03 0.02 0.02 0.01 0.01 0.01 0.01 0.01 0.02 0.02 0.02 0.02 0.02 0.03 0.02 0.02 0.02 0.03 0.03 0.03 0.03 0.03 0.04 0.05 0.06 0.08 0.07 0.07 0.07 0.07 0.08 0.08 0.09 0.08 0.06
0.03 0.04 0.03 0.01 0.01 0.02 0.02 0.02 0.01 0.02 0.02 0.01 0.01 0.01 0.01 0.02 0.03 0.03 0.03 0.03 0.02 0.02 0.02 0.02 0.02 0.02 0.03 0.03 0.03 0.03 0.03 0.03 0.03 0.05 0.05 0.05 0.05 0.05 0.07 0.10 0.12 0.12 0.10
0.04 0.04 0.03 0.01 0.01 0.01 0.01 0.01 0.01 0.01 0.01 0.01 0.02 0.02 0.01 0.02 0.02 0.03 0.04 0.03 0.02 0.02 0.02 0.02 0.02 0.02 0.02 0.02 0.02 0.02 0.02 0.02 0.03 0.04 0.04 0.04 0.04 0.04 0.05 0.07 0.11 0.14 0.12
MSLP
1013.93 1013.78 1013.69 1013.68 1013.76 1013.91 1014.11 1014.32 1014.51 1014.66 1014.77 1014.86 1014.93 1015.03 1015.16 1015.33 1015.54 1015.76 1015.97 1016.15 1016.29 1016.40 1016.50 1016.60 1016.72 1016.86 1017.03 1017.20 1017.36 1017.49 1017.58 1017.63 1017.66 1017.69 1017.73 1017.79 1017.88 1017.98 1018.07 1018.14 1018.16 1018.14 1018.09
1014.28 1014.03 1013.85 1013.78 1013.82 1013.98 1014.21 1014.46 1014.71 1014.91 1015.05 1015.15 1015.22 1015.29 1015.39 1015.53 1015.70 1015.89 1016.07 1016.24 1016.38 1016.50 1016.61 1016.74 1016.90 1017.08 1017.28 1017.47 1017.64 1017.77 1017.85 1017.88 1017.90 1017.91 1017.95 1018.02 1018.13 1018.25 1018.37 1018.45 1018.49 1018.49 1018.44
1014.51 1014.15 1013.88 1013.74 1013.76 1013.91 1014.17 1014.48 1014.78 1015.05 1015.24 1015.37 1015.46 1015.53 1015.62 1015.73 1015.86 1016.02 1016.17 1016.32 1016.45 1016.58 1016.71 1016.87 1017.05 1017.27 1017.49 1017.70 1017.87 1017.99 1018.05 1018.06 1018.05 1018.05 1018.08 1018.16 1018.28 1018.42 1018.57 1018.68 1018.74 1018.76 1018.72
1014.61 1014.16 1013.81 1013.61 1013.59 1013.74 1014.02 1014.38 1014.74 1015.07 1015.33 1015.51 1015.63 1015.72 1015.81 1015.91 1016.03 1016.16 1016.30 1016.43 1016.56 1016.69 1016.84 1017.01 1017.22 1017.46 1017.69 1017.91 1018.07 1018.17 1018.21 1018.19 1018.16 1018.13 1018.16 1018.24 1018.37 1018.53 1018.70 1018.84 1018.93 1018.97 1018.96
1014.62 1014.10 1013.68 1013.44 1013.39 1013.54 1013.83 1014.22 1014.63 1015.00 1015.31 1015.54 1015.70 1015.83 1015.95 1016.07 1016.20 1016.33 1016.47 1016.60 1016.73 1016.86 1017.02 1017.20 1017.42 1017.67 1017.91 1018.12 1018.27 1018.34 1018.35 1018.31 1018.25 1018.21 1018.22 1018.29 1018.43 1018.61 1018.80 1018.97 1019.09 1019.15 1019.17
1014.59 1014.03 1013.58 1013.31 1013.25 1013.38 1013.68 1014.07 1014.49 1014.89 1015.22 1015.49 1015.70 1015.88 1016.04 1016.19 1016.36 1016.52 1016.67 1016.82 1016.95 1017.09 1017.25 1017.44 1017.66 1017.90 1018.13 1018.32 1018.45 1018.51 1018.49 1018.43 1018.35 1018.29 1018.30 1018.38 1018.53 1018.72 1018.92 1019.11 1019.25 1019.33 1019.38
1014.58 1014.02 1013.57 1013.29 1013.22 1013.34 1013.62 1013.99 1014.40 1014.78 1015.12 1015.41 1015.65 1015.87 1016.08 1016.29 1016.51 1016.72 1016.90 1017.07 1017.22 1017.37 1017.53 1017.71 1017.91 1018.13 1018.34 1018.51 1018.62 1018.66 1018.63 1018.55 1018.47 1018.41 1018.42 1018.51 1018.67 1018.87 1019.09 1019.29 1019.44 1019.55 1019.61
1014.66 1014.12 1013.69 1013.43 1013.36 1013.47 1013.71 1014.04 1014.40 1014.74 1015.06 1015.33 1015.59 1015.85 1016.11 1016.37 1016.65 1016.90 1017.13 1017.33 1017.49 1017.64 1017.79 1017.96 1018.14 1018.33 1018.52 1018.66 1018.76 1018.78 1018.74 1018.67 1018.59 1018.55 1018.58 1018.68 1018.85 1019.07 1019.30 1019.51 1019.67 1019.79 1019.86
1014.84 1014.33 1013.94 1013.71 1013.65 1013.74 1013.95 1014.22 1014.51 1014.79 1015.05 1015.30 1015.56 1015.83 1016.13 1016.44 1016.76 1017.07 1017.33 1017.55 1017.72 1017.87 1018.00 1018.14 1018.30 1018.46 1018.62 1018.75 1018.83 1018.85 1018.82 1018.76 1018.70 1018.69 1018.74 1018.87 1019.06 1019.29 1019.53 1019.75 1019.93 1020.05 1020.13
1015.08 1014.62 1014.28 1014.08 1014.03 1014.11 1014.27 1014.47 1014.69 1014.90 1015.10 1015.31 1015.55 1015.83 1016.15 1016.50 1016.86 1017.19 1017.48 1017.70 1017.88 1018.01 1018.13 1018.25 1018.37 1018.52 1018.65 1018.76 1018.83 1018.86 1018.84 1018.80 1018.78 1018.79 1018.87 1019.03 1019.24 1019.49 1019.75 1019.98 1020.16 1020.30 1020.40
1015.33 1014.92 1014.62 1014.46 1014.42 1014.48 1014.59 1014.74 1014.88 1015.03 1015.18 1015.35 1015.58 1015.86 1016.19 1016.56 1016.93 1017.28 1017.57 1017.80 1017.96 1018.08 1018.18 1018.28 1018.39 1018.51 1018.63 1018.74 1018.81 1018.84 1018.83 1018.82 1018.81 1018.85 1018.96 1019.13 1019.37 1019.63 1019.90 1020.15 1020.35 1020.50 1020.62
1015.55 1015.17 1014.90 1014.76 1014.72 1014.76 1014.84 1014.93 1015.03 1015.13 1015.24 1015.40 1015.61 1015.89 1016.24 1016.61 1016.99 1017.34 1017.63 1017.85 1018.00 1018.11 1018.20 1018.29 1018.39 1018.51 1018.63 1018.73 1018.80 1018.84 1018.84 1018.83 1018.84 1018.89 1019.00 1019.18 1019.42 1019.69 1019.97 1020.23 1020.45 1020.64 1020.79
1015.68 1015.32 1015.07 1014.93 1014.89 1014.90 1014.95 1015.01 1015.07 1015.15 1015.25 1015.41 1015.64 1015.93 1016.29 1016.67 1017.05 1017.39 1017.67 1017.88 1018.03 1018.13 1018.23 1018.33 1018.44 1018.57 1018.69 1018.80 1018.88 1018.91 1018.91 1018.90 1018.89 1018.93 1019.03 1019.19 1019.41 1019.68 1019.96 1020.23 1020.47 1020.69 1020.89
1015.73 1015.37 1015.12 1014.97 1014.90 1014.89 1014.91 1014.95 1015.00 1015.08 1015.20 1015.38 1015.64 1015.97 1016.34 1016.74 1017.12 1017.46 1017.73 1017.93 1018.08 1018.20 1018.32 1018.44 1018.59 1018.74 1018.89 1019.02 1019.10 1019.13 1019.11 1019.07 1019.04 1019.04 1019.09 1019.22 1019.40 1019.64 1019.90 1020.17 1020.44 1020.69 1020.95
1015.72 1015.35 1015.09 1014.91 1014.82 1014.77 1014.77 1014.79 1014.84 1014.94 1015.09 1015.32 1015.63 1015.99 1016.40 1016.81 1017.20 1017.53 1017.80 1018.01 1018.18 1018.33 1018.48 1018.66 1018.85 1019.05 1019.24 1019.39 1019.48 1019.50 1019.47 1019.39 1019.31 1019.26 1019.25 1019.31 1019.44 1019.62 1019.85 1020.11 1020.38 1020.67 1020.97
1015.72 1015.34 1015.05 1014.84 1014.70 1014.62 1014.58 1014.59 1014.65 1014.77 1014.97 1015.25 1015.61 1016.01 1016.45 1016.88 1017.27 1017.61 1017.89 1018.11 1018.31 1018.50 1018.71 1018.94 1019.20 1019.46 1019.70 1019.88 1019.99 1020.01 1019.96 1019.85 1019.73 1019.61 1019.54 1019.52 1019.58 1019.70 1019.88 1020.11 1020.37 1020.68 1021.01
1015.79 1015.41 1015.09 1014.84 1014.66 1014.53 1014.46 1014.45 1014.51 1014.65 1014.88 1015.20 1015.60 1016.03 1016.49 1016.93 1017.32 1017.66 1017.95 1018.19 1018.42 1018.67 1018.93 1019.23 1019.56 1019.88 1020.17 1020.40 1020.54 1020.58 1020.53 1020.41 1020.25 1020.09 1019.96 1019.88 1019.87 1019.92 1020.05 1020.23 1020.47 1020.76 1021.11
1015.99 1015.60 1015.26 1014.97 1014.73 1014.56 1014.45 1014.41 1014.46 1014.61 1014.86 1015.20 1015.61 1016.06 1016.52 1016.95 1017.33 1017.67 1017.95 1018.21 1018.47 1018.75 1019.08 1019.44 1019.82 1020.21 1020.56 1020.84 1021.02 1021.10 1021.08 1020.97 1020.81 1020.64 1020.48 1020.36 1020.30 1020.29 1020.36 1020.49 1020.69 1020.96 1021.29
1016.33 1015.93 1015.56 1015.24 1014.96 1014.73 1014.58 1014.51 1014.54 1014.68 1014.92 1015.26 1015.66 1016.09 1016.52 1016.93 1017.29 1017.60 1017.87 1018.13 1018.40 1018.71 1019.06 1019.47 1019.90 1020.34 1020.74 1021.08 1021.32 1021.46 1021.49 1021.44 1021.33 1021.18 1021.04 1020.91 1020.83 1020.79 1020.81 1020.90 1021.05 1021.27 1021.57
1016.77 1016.36 1015.98 1015.62 1015.30 1015.03 1014.83 1014.73 1014.73 1014.84 1015.05 1015.36 1015.73 1016.12 1016.51 1016.86 1017.18 1017.45 1017.69 1017.93 1018.20 1018.50 1018.87 1019.29 1019.75 1020.21 1020.66 1021.05 1021.35 1021.57 1021.68 1021.72 1021.69 1021.63 1021.54 1021.46 1021.40 1021.36 1021.36 1021.41 1021.52 1021.69 1021.93
1017.26 1016.85 1016.44 1016.05 1015.69 1015.38 1015.15 1015.01 1014.97 1015.04 1015.22 1015.48 1015.80 1016.13 1016.46 1016.76 1017.01 1017.23 1017.43 1017.64 1017.87 1018.15 1018.50 1018.90 1019.36 1019.83 1020.29 1020.72 1021.09 1021.39 1021.61 1021.76 1021.85 1021.90 1021.91 1021.91 1021.91 1021.90 1021.92 1021.95 1022.03 1022.16 1022.35
1017.73 1017.30 1016.87 1016.45 1016.05 1015.72 1015.45 1015.28 1015.21 1015.25 1015.38 1015.60 1015.85 1016.13 1016.39 1016.63 1016.82 1016.98 1017.13 1017.29 1017.48 1017.71 1018.02 1018.38 1018.80 1019.25 1019.71 1020.16 1020.57 1020.94 1021.26 1021.53 1021.76 1021.94 1022.09 1022.20 1022.28 1022.34 1022.40 1022.45 1022.52 1022.63 1022.78
1018.14 1017.69 1017.22 1016.77 1016.34 1015.98 1015.69 1015.49 1015.39 1015.40 1015.50 1015.67 1015.88 1016.10 1016.30 1016.48 1016.63 1016.74 1016.84 1016.95 1017.09 1017.27 1017.51 1017.81 1018.17 1018.58 1019.01 1019.44 1019.88 1020.30 1020.70 1021.08 1021.42 1021.74 1022.01 1022.25 1022.44 1022.59 1022.71 1022.81 1022.91 1023.02 1023.15
1018.46 1017.98 1017.48 1016.99 1016.54 1016.14 1015.83 1015.61 1015.49 1015.48 1015.55 1015.68 1015.85 1016.03 1016.20 1016.34 1016.45 1016.54 1016.60 1016.68 1016.77 1016.90 1017.08 1017.31 1017.60 1017.93 1018.30 1018.71 1019.13 1019.57 1020.01 1020.46 1020.89 1021.31 1021.69 1022.04 1022.34 1022.59 1022.80 1022.97 1023.12 1023.27 1023.43
1018.72 1018.20 1017.67 1017.14 1016.66 1016.24 1015.90 1015.66 1015.52 1015.48 1015.53 1015.63 1015.78 1015.93 1016.08 1016.21 1016.31 1016.38 1016.44 1016.49 1016.56 1016.65 1016.77 1016.94 1017.15 1017.41 1017.71 1018.05 1018.44 1018.85 1019.30 1019.77 1020.24 1020.72 1021.18 1021.61 1022.00 1022.34 1022.64 1022.90 1023.13 1023.35 1023.56
1018.93 1018.39 1017.83 1017.28 1016.76 1016.31 1015.94 1015.67 1015.51 1015.44 1015.45 1015.53 1015.65 1015.79 1015.93 1016.06 1016.17 1016.25 1016.32 1016.38 1016.44 1016.51 1016.61 1016.72 1016.87 1017.06 1017.28 1017.55 1017.87 1018.23 1018.63 1019.08 1019.55 1020.03 1020.52 1021.00 1021.45 1021.87 1022.26 1022.62 1022.94 1023.25 1023.54
Thickness
5718 5718 5714 5714 5714 5714 5715 5715 5716 5716 5717 5717 5718 5718 5718 5718 5718 5718 5718 5718 5718 5719 5719 5719 5719 5720 5719 5719 5719 5719 5719 5718 5718 5718 5718 5717 5717 5718 5717 5718 5719 5719 5717
5714 5713 5710 5710 5710 5710 5711 5711 5712 5712 5713 5714 5714 5715 5715 5715 5715 5716 5716 5716 5716 5716 5716 5716 5716 5716 5716 5716 5716 5715 5715 5715 5714 5714 5714 5714 5714 5714 5714 5715 5716 5715 5714
5709 5708 5706 5706 5706 5706 5707 5707 5708 5708 5709 5710 5710 5711 5712 5712 5712 5712 5712 5712 5712 5713 5713 5713 5713 5713 5713 5713 5712 5712 5712 5712 5711 5712 5713 5714 5712 5711 5711 5711 5711 5711 5710
5703 5702 5701 5700 5701 5702 5702 5703 5704 5704 5705 5706 5706 5707 5708 5708 5709 5709 5709 5709 5709 5709 5709 5709 5709 5709 5709 5709 5709 5709 5708 5708 5708 5710 5712 5712 5711 5708 5708 5708 5708 5707 5707
5696 5696 5695 5694 5695 5696 5697 5698 5699 5700 5701 5701 5702 5703 5704 5704 5705 5705 5706 5706 5706 5705 5706 5706 5705 5706 5706 5706 5705 5705 5705 5705 5705 5707 5709 5709 5708 5705 5705 5705 5704 5703 5703
5690 5690 5689 5689 5689 5690 5692 5692 5693 5695 5696 5696 5697 5698 5699 5700 5700 5701 5701 5702 5702 5702 5702 5702 5702 5702 5702 5702 5702 5701 5701 5701 5703 5705 5705 5705 5704 5702 5702 5701 5700 5700 5699
5683 5682 5683 5682 5683 5684 5686 5687 5688 5689 5690 5691 5692 5693 5694 5695 5696 5696 5697 5697 5698 5698 5698 5698 5698 5698 5698 5698 5698 5698 5698 5698 5701 5702 5702 5701 5700 5698 5698 5697 5697 5696 5695
5675 5675 5676 5676 5676 5677 5679 5680 5681 5682 5684 5685 5686 5688 5689 5690 5691 5692 5692 5693 5693 5694 5694 5694 5694 5694 5693 5693 5693 5693 5694 5694 5696 5697 5697 5697 5695 5694 5694 5693 5693 5692 5692
5667 5667 5668 5669 5670 5670 5671 5672 5674 5675 5677 5678 5680 5681 5683 5684 5685 5686 5687 5688 5689 5689 5690 5689 5689 5689 5689 5688 5688 5689 5689 5691 5694 5694 5694 5693 5691 5690 5690 5690 5689 5688 5688
5659 5659 5661 5662 5663 5664 5664 5665 5666 5667 5669 5671 5673 5674 5676 5678 5679 5681 5682 5682 5683 5684 5684 5684 5684 5684 5684 5683 5684 5684 5685 5686 5689 5689 5689 5688 5687 5686 5686 5685 5685 5684 5683
5650 5651 5653 5654 5655 5656 5657 5658 5659 5660 5662 5664 5666 5667 5669 5671 5674 5675 5676 5676 5677 5678 5679 5679 5679 5678 5678 5678 5678 5679 5681 5684 5684 5685 5684 5683 5682 5682 5681 5681 5680 5679 5678
5643 5644 5645 5646 5647 5648 5650 5651 5652 5654 5655 5657 5659 5660 5662 5665 5667 5668 5668 5669 5671 5672 5672 5673 5672 5673 5673 5674 5674 5675 5677 5679 5679 5679 5678 5677 5677 5677 5676 5675 5675 5674 5673
5636 5637 5638 5639 5640 5641 5643 5644 5645 5647 5649 5651 5652 5653 5655 5657 5659 5661 5662 5663 5664 5665 5667 5667 5667 5669 5669 5670 5670 5671 5672 5673 5674 5673 5672 5672 5672 5671 5671 5670 5670 5669 5668
5629 5630 5631 5633 5634 5635 5637 5638 5639 5640 5642 5643 5644 5646 5648 5650 5652 5654 5656 5657 5658 5659 5661 5662 5663 5663 5664 5664 5665 5665 5666 5667 5667 5667 5666 5665 5666 5666 5665 5665 5664 5663 5662
5623 5624 5625 5626 5628 5629 5630 5632 5633 5634 5636 5637 5638 5639 5641 5643 5645 5646 5648 5650 5651 5653 5654 5655 5657 5657 5657 5657 5658 5659 5659 5660 5660 5660 5659 5658 5659 5659 5659 5659 5658 5657 5656
5617 5618 5618 5619 5621 5622 5624 5625 5627 5628 5629 5630 5631 5633 5634 5635 5637 5638 5640 5642 5644 5645 5646 5648 5649 5650 5650 5650 5650 5650 5651 5652 5652 5652 5652 5651 5651 5652 5652 5652 5652 5651 5650
5611 5611 5612 5613 5614 5616 5617 5619 5620 5620 5622 5622 5624 5626 5626 5627 5629 5630 5632 5634 5636 5637 5638 5640 5640 5641 5642 5642 5642 5642 5642 5643 5644 5644 5644 5644 5644 5644 5644 5645 5644 5644 5643
5605 5605 5606 5607 5608 5610 5611 5611 5612 5613 5615 5615 5616 5617 5619 5619 5621 5622 5624 5625 5627 5628 5630 5632 5633 5633 5633 5634 5633 5633 5633 5633 5634 5635 5635 5636 5636 5636 5636 5636 5637 5636 5636
5598 5598 5599 5600 5602 5603 5603 5603 5604 5605 5606 5607 5608 5609 5610 5611 5611 5613 5615 5616 5617 5619 5621 5622 5624 5624 5624 5624 5623 5623 5623 5623 5624 5624 5626 5626 5627 5627 5628 5628 5628 5628 5628
5591 5592 5593 5592 5594 5595 5595 5596 5596 5597 5597 5599 5600 5600 5601 5602 5602 5604 5606 5607 5608 5610 5612 5613 5613 5614 5614 5613 5613 5611 5612 5612 5613 5614 5616 5616 5617 5617 5618 5619 5619 5619 5619
5585 5585 5586 5586 5587 5587 5588 5589 5590 5590 5590 5591 5591 5591 5592 5593 5594 5595 5597 5598 5599 5601 5602 5603 5603 5603 5602 5602 5602 5601 5600 5601 5602 5603 5605 5607 5608 5608 5609 5610 5610 5611 5610
5578 5578 5579 5580 5580 5580 5580 5582 5582 5582 5582 5583 5582 5583 5583 5584 5585 5587 5588 5589 5590 5591 5592 5593 5594 5594 5592 5593 5595 5594 5593 5592 5593 5593 5594 5596 5598 5598 5599 5600 5600 5601 5601
5572 5572 5573 5573 5574 5573 5573 5574 5573 5573 5574 5574 5574 5574 5575 5576 5576 5578 5579 5580 5581 5582 5582 5583 5585 5586 5585 5583 5586 5588 5588 5590 5587 5585 5585 5586 5588 5589 5590 5590 5590 5591 5591
5566 5566 5566 5566 5566 5566 5566 5566 5567 5569 5569 5568 5567 5567 5567 5567 5568 5569 5570 5571 5572 5573 5574 5574 5575 5576 5577 5576 5575 5576 5580 5582 5581 5579 5577 5578 5578 5579 5580 5580 5580 5580 5580
5561 5560 5560 5560 5559 5559 5559 5559 5560 5561 5561 5560 5559 5558 5559 5559 5559 5560 5561 5562 5563 5564 5565 5566 5566 5567 5569 5570 5569 5568 5568 5569 5573 5574 5573 5571 5570 5570 5570 5571 5571 5571 5571
5554 5553 5553 5553 5553 5553 5552 5553 5553 5554 5553 5552 5552 5552 5552 5552 5551 5552 5553 5554 5554 5556 5557 5557 5557 5558 5560 5561 5561 5562 5562 5563 5564 5566 5567 5565 5564 5563 5561 5561 5561 5562 5562